Clarinda, IA

9:16 AM CST on December 07, 2016 (GMT -0600)
Schenck

Weather History for KICL - January, 2014

Change the Weather History Date:

Monday, January 20, 2014

  Actual Average Record
Temperature  
Mean Temperature 28 °F -  
Max Temperature 48 °F 33 °F 57 °F (1997)
Min Temperature 6 °F 14 °F -14 °F (2008)
Degree Days  
Heating Degree Days 37    
Moisture  
Dew Point 21 °F    
Average Humidity 71    
Maximum Humidity 93    
Minimum Humidity 40    
Precipitation  
Precipitation 0.00 in - - ()
Sea Level Pressure  
Sea Level Pressure 30.04 in    
Wind  
Wind Speed 9 mph (NW)    
Max Wind Speed 36 mph    
Max Gust Speed 44 mph    
Visibility 10 miles    
Events Snow    
Averages and records for this station are not official NWS values.
T = Trace of Precipitation, MM = Missing Value Source: NWS Daily Summary

Daily Weather History Graph

Daily Weather History Graph

Search for Another Location

Airport or City:

Trip Planner

Search our weather history database for the weather conditions in past years. The results will help you decide how hot, cold, wet, or windy it might be!

Date:

Astronomy

Jan. 20, 2014 Rise Set
Actual Time 7:39 AM CST 5:23 PM CST
Civil Twilight 7:09 AM CST 5:53 PM CST
Nautical Twilight 6:36 AM CST 6:26 PM CST
Astronomical Twilight 6:03 AM CST 6:59 PM CST
Moon 10:00 PM CST (1/20) 9:38 AM CST (1/20)
Length of Visible Light 10h 43m
Length of Day
9h 43m
Waning Gibbous, 82% of the Moon is Illuminated
Jan 20
Waning Gibbous
Jan 23
Last Quarter
Jan 30
New
Feb 6
First Quarter
Feb 14
Full

Hourly Weather History & Observations

Time (CST) Temp. Windchill Dew Point Humidity Pressure Visibility Wind Dir Wind Speed Gust Speed Precip Events Conditions
12:15 AM 35.6 °F 29.9 °F 24.8 °F 65% 29.85 in 10.0 mi NW 6.9 mph - N/A   Clear
12:35 AM 32.0 °F - 23.0 °F 69% 29.85 in 10.0 mi Calm Calm - N/A   Clear
12:55 AM 28.4 °F - 23.0 °F 80% 29.85 in 10.0 mi Calm Calm - N/A   Clear
1:15 AM 30.2 °F - 24.8 °F 80% 29.85 in 10.0 mi Calm Calm - N/A   Clear
1:35 AM 33.8 °F 28.6 °F 24.8 °F 70% 29.85 in 10.0 mi North 5.8 mph - N/A   Clear
1:55 AM 33.8 °F 27.7 °F 24.8 °F 70% 29.85 in 10.0 mi NNW 6.9 mph - N/A   Clear
2:15 AM 33.8 °F 27.0 °F 24.8 °F 70% 29.87 in 10.0 mi North 8.1 mph - N/A   Clear
2:35 AM 32.0 °F 27.5 °F 24.8 °F 75% 29.87 in 10.0 mi NNE 4.6 mph - N/A   Clear
2:55 AM 30.2 °F 24.3 °F 24.8 °F 80% 29.87 in 10.0 mi North 5.8 mph - N/A   Clear
3:15 AM 28.4 °F - 23.0 °F 80% 29.87 in 10.0 mi Calm Calm - N/A   Clear
3:35 AM 28.4 °F - 24.8 °F 86% 29.88 in 10.0 mi Calm Calm - N/A   Clear
3:55 AM 28.4 °F - 23.0 °F 80% 29.89 in 10.0 mi Calm Calm - N/A   Clear
4:15 AM 24.8 °F - 23.0 °F 93% 29.90 in - Calm Calm - N/A   Unknown
4:35 AM 24.8 °F - 21.2 °F 86% 29.91 in 10.0 mi Calm Calm - N/A   Clear
4:55 AM 23.0 °F - 21.2 °F 93% 29.91 in 10.0 mi Calm Calm - N/A   Clear
5:15 AM 24.8 °F - 21.2 °F 86% 29.92 in 10.0 mi Calm Calm - N/A   Clear
5:35 AM 23.0 °F - 21.2 °F 93% 29.93 in 10.0 mi Calm Calm - N/A   Clear
5:55 AM 23.0 °F - 21.2 °F 93% 29.92 in 10.0 mi Calm Calm - N/A   Clear
6:15 AM 24.8 °F - 21.2 °F 86% 29.92 in 10.0 mi Calm Calm - N/A   Clear
6:35 AM 21.2 °F - 19.4 °F 93% 29.94 in 10.0 mi Calm Calm - N/A   Clear
6:55 AM 21.2 °F 13.6 °F 19.4 °F 93% 29.95 in 10.0 mi South 5.8 mph - N/A   Clear
7:15 AM 21.2 °F - 19.4 °F 93% 29.96 in 10.0 mi Calm Calm - N/A   Clear
7:35 AM 21.2 °F - 19.4 °F 93% 29.96 in 10.0 mi Calm Calm - N/A   Clear
7:55 AM 21.2 °F 13.6 °F 19.4 °F 93% 29.96 in 10.0 mi South 5.8 mph - N/A   Clear
8:15 AM 21.2 °F - 19.4 °F 93% 29.97 in 10.0 mi Calm Calm - N/A   Partly Cloudy
8:35 AM 23.0 °F - 21.2 °F 93% 29.98 in 10.0 mi Calm Calm - N/A   Clear
8:55 AM 24.8 °F - 23.0 °F 93% 29.99 in 10.0 mi Calm Calm - N/A   Clear
9:15 AM 26.6 °F - 23.0 °F 86% 30.00 in 10.0 mi Calm Calm - N/A   Clear
9:35 AM 28.4 °F - 24.8 °F 86% 30.00 in 10.0 mi Calm Calm - N/A   Clear
9:55 AM 35.6 °F 28.6 °F 28.4 °F 75% 30.01 in 10.0 mi NW 9.2 mph - N/A   Clear
10:15 AM 39.2 °F 32.5 °F 28.4 °F 65% 30.02 in 10.0 mi NW 10.4 mph 16.1 mph N/A   Clear
10:35 AM 39.2 °F 33.0 °F 28.4 °F 65% 30.02 in 10.0 mi NW 9.2 mph - N/A   Clear
10:55 AM 41.0 °F 33.5 °F 28.4 °F 61% 30.03 in 10.0 mi NW 13.8 mph - N/A   Clear
11:15 AM 42.8 °F 36.2 °F 30.2 °F 61% 30.03 in 10.0 mi NW 12.7 mph - N/A   Clear
11:35 AM 44.6 °F 39.2 °F 30.2 °F 57% 30.02 in 10.0 mi WNW 10.4 mph - N/A   Clear
11:55 AM 44.6 °F 40.2 °F 30.2 °F 57% 30.02 in 10.0 mi WNW 8.1 mph 15.0 mph N/A   Clear
12:15 PM 44.6 °F 38.4 °F 28.4 °F 53% 30.01 in 10.0 mi NW 12.7 mph - N/A   Clear
12:35 PM 44.6 °F 37.8 °F 30.2 °F 57% 30.00 in 10.0 mi NW 15.0 mph - N/A   Clear
12:55 PM 46.4 °F 40.1 °F 28.4 °F 50% 29.99 in 10.0 mi WNW 15.0 mph 23.0 mph N/A   Clear
1:15 PM 48.2 °F - 28.4 °F 46% 29.99 in 10.0 mi WNW 13.8 mph 19.6 mph N/A   Partly Cloudy
1:35 PM 48.2 °F - 28.4 °F 46% 29.99 in 10.0 mi WNW 16.1 mph 21.9 mph N/A   Mostly Cloudy
1:55 PM 48.2 °F - 24.8 °F 40% 29.98 in 10.0 mi NNW 23.0 mph 31.1 mph N/A   Overcast
2:15 PM 46.4 °F 39.5 °F 24.8 °F 43% 29.99 in - NW 17.3 mph 27.6 mph N/A   Overcast
2:35 PM 44.6 °F 36.6 °F 24.8 °F 46% 30.00 in 10.0 mi WNW 19.6 mph 31.1 mph N/A   Overcast
2:55 PM 46.4 °F 39.2 °F 24.8 °F 43% 30.00 in 10.0 mi NW 18.4 mph 29.9 mph N/A   Overcast
3:15 PM 44.6 °F 37.2 °F 24.8 °F 46% 30.01 in 10.0 mi NW 17.3 mph 31.1 mph N/A   Overcast
3:35 PM 42.8 °F 34.0 °F 24.8 °F 49% 30.02 in 10.0 mi NW 20.7 mph 32.2 mph N/A   Overcast
3:55 PM 42.8 °F 35.1 °F 24.8 °F 49% 30.03 in 10.0 mi NW 16.1 mph 23.0 mph N/A   Overcast
4:15 PM 42.8 °F 33.5 °F 24.8 °F 49% 30.03 in 10.0 mi NW 23.0 mph 34.5 mph N/A   Overcast
4:35 PM 42.8 °F 35.1 °F 26.6 °F 53% 30.04 in 10.0 mi NW 16.1 mph 25.3 mph N/A   Overcast
4:55 PM 37.4 °F 25.6 °F 30.2 °F 75% 30.06 in 4.0 mi NW 26.5 mph 38.0 mph N/A   Mostly Cloudy
5:15 PM 35.6 °F 24.2 °F 32.0 °F 87% 30.07 in 4.0 mi NW 21.9 mph 32.2 mph N/A Snow Light Snow
5:35 PM 35.6 °F 25.5 °F 32.0 °F 87% 30.08 in 10.0 mi WNW 17.3 mph 25.3 mph N/A Snow Light Snow
5:55 PM 33.8 °F 21.9 °F 23.0 °F 65% 30.10 in 10.0 mi NW 21.9 mph 38.0 mph N/A   Overcast
6:15 PM 33.8 °F 21.6 °F 23.0 °F 65% 30.12 in 10.0 mi NW 23.0 mph 35.7 mph N/A   Overcast
6:35 PM 32.0 °F 19.2 °F 21.2 °F 64% 30.14 in 10.0 mi NW 23.0 mph 33.4 mph N/A   Overcast
6:55 PM 30.2 °F 14.1 °F 21.2 °F 69% 30.16 in 10.0 mi NNW 35.7 mph 41.4 mph N/A   Overcast
7:15 PM 28.4 °F 13.3 °F 19.4 °F 69% 30.18 in 10.0 mi NNW 27.6 mph 34.5 mph N/A   Overcast
7:35 PM 26.6 °F 10.3 °F 17.6 °F 69% 30.21 in 10.0 mi NNW 29.9 mph 39.1 mph N/A   Overcast
7:55 PM 23.0 °F 5.4 °F 14.0 °F 68% 30.22 in 10.0 mi NNW 29.9 mph 43.7 mph N/A   Overcast
8:15 PM 23.0 °F 6.6 °F 15.8 °F 74% 30.24 in 9.0 mi NNW 25.3 mph 40.3 mph N/A   Overcast
8:35 PM 21.2 °F 3.5 °F 12.2 °F 68% 30.26 in 7.0 mi North 27.6 mph 36.8 mph N/A Snow Light Snow
8:55 PM 19.4 °F 2.5 °F 8.6 °F 63% 30.29 in 10.0 mi NNW 23.0 mph 38.0 mph N/A   Overcast
9:15 PM 17.6 °F -1.6 °F 6.8 °F 63% 30.30 in 10.0 mi NNW 28.8 mph 38.0 mph N/A   Overcast
9:35 PM 17.6 °F -1.6 °F 5.0 °F 58% 30.32 in 10.0 mi North 28.8 mph 41.4 mph N/A   Overcast
9:55 PM 15.8 °F -2.3 °F 6.8 °F 68% 30.34 in 9.0 mi NNW 23.0 mph 36.8 mph N/A Snow Light Snow
10:15 PM 14.0 °F -7.1 °F 5.0 °F 67% 30.35 in 8.0 mi NNW 31.1 mph 38.0 mph N/A Snow Light Snow
10:35 PM 12.2 °F -7.9 °F 3.2 °F 67% 30.37 in 10.0 mi NNW 25.3 mph 35.7 mph N/A   Overcast
10:55 PM 10.4 °F -10.3 °F 3.2 °F 73% 30.39 in 10.0 mi NNW 25.3 mph 32.2 mph N/A   Mostly Cloudy
11:15 PM 8.6 °F -11.9 °F 1.4 °F 73% 30.39 in 10.0 mi NNW 23.0 mph 32.2 mph N/A   Mostly Cloudy
11:35 PM 8.6 °F -12.7 °F -0.4 °F 67% 30.41 in 10.0 mi NNW 25.3 mph - N/A   Scattered Clouds
11:55 PM 6.8 °F -12.9 °F -0.4 °F 72% 30.42 in 10.0 mi NNW 19.6 mph - N/A   Mostly Cloudy